SWA735 KOKC-KHOU

Flight info

Callsign SWA735
Flight time 1h 6m
Altitude 33000
Route MUDDE3 OLFRD CVE ELLVR KIDDZ5
Aircraft B738/M-SDE2E3FGHIRWXY/LB1

Departure

Time 2026-04-20 22:27
Airport OKC Will Rogers World Airport (KOKC)

Arrival

Time 2026-04-20 23:34
Airport William P. Hobby Airport (KHOU)
Time Latitude Longitude Altitude Speed Heading
2026-04-20 22:02 35.39451 -97.59658 1296 ft 0 kts 15°
2026-04-20 22:12 35.39451 -97.59659 1296 ft 0 kts 15°
2026-04-20 22:12 35.39451 -97.59658 1296 ft 0 kts 15°
2026-04-20 22:12 35.39451 -97.59659 1296 ft 0 kts 15°
2026-04-20 22:16 35.39442 -97.59661 1296 ft 3 kts 15°
2026-04-20 22:17 35.39423 -97.59668 1296 ft 3 kts 15°
2026-04-20 22:17 35.39403 -97.59675 1296 ft 3 kts 15°
2026-04-20 22:17 35.39392 -97.59678 1296 ft 0 kts 15°
2026-04-20 22:20 35.39394 -97.59673 1296 ft 3 kts 55°
2026-04-20 22:20 35.39386 -97.59622 1296 ft 10 kts 97°
2026-04-20 22:21 35.39347 -97.59538 1297 ft 14 kts 161°
2026-04-20 22:21 35.39243 -97.59529 1294 ft 14 kts 162°
2026-04-20 22:21 35.39216 -97.59421 1295 ft 15 kts 91°
2026-04-20 22:21 35.39215 -97.59271 1293 ft 19 kts 91°
2026-04-20 22:22 35.39217 -97.59110 1291 ft 16 kts 84°
2026-04-20 22:22 35.39313 -97.59063 1293 ft 17 kts 360°
2026-04-20 22:22 35.39455 -97.59062 1293 ft 24 kts 360°
2026-04-20 22:22 35.39645 -97.59063 1292 ft 30 kts
2026-04-20 22:23 35.39856 -97.59062 1293 ft 31 kts 360°
2026-04-20 22:23 35.40066 -97.59065 1291 ft 29 kts 360°
2026-04-20 22:23 35.40252 -97.59061 1292 ft 25 kts 357°
2026-04-20 22:23 35.40421 -97.59065 1290 ft 23 kts
2026-04-20 22:24 35.40499 -97.59023 1292 ft 0 kts 71°
2026-04-20 22:25 35.40502 -97.58994 1292 ft 10 kts 85°
2026-04-20 22:25 35.40486 -97.58901 1293 ft 10 kts 145°
2026-04-20 22:25 35.40453 -97.58895 1293 ft 0 kts 181°
2026-04-20 22:25 35.40445 -97.58896 1293 ft 0 kts 180°
2026-04-20 22:26 35.40444 -97.58896 1293 ft 1 kts 180°
2026-04-20 22:26 35.40251 -97.58896 1293 ft 62 kts 180°
2026-04-20 22:27 35.38586 -97.58881 1426 ft 159 kts 180°
2026-04-20 22:27 35.37512 -97.58771 1879 ft 161 kts 175°
2026-04-20 22:27 35.36381 -97.58669 2612 ft 165 kts 181°
2026-04-20 22:27 35.35153 -97.58686 3037 ft 186 kts 181°
2026-04-20 22:28 35.33807 -97.58711 3254 ft 203 kts 182°
2026-04-20 22:28 35.32366 -97.58747 3679 ft 210 kts 180°
2026-04-20 22:28 35.30881 -97.58648 4184 ft 215 kts 177°
2026-04-20 22:28 35.29391 -97.58500 4866 ft 216 kts 177°
2026-04-20 22:29 35.27882 -97.58350 5428 ft 219 kts 177°
2026-04-20 22:29 35.26355 -97.58203 6020 ft 223 kts 178°
2026-04-20 22:29 35.24781 -97.58054 6576 ft 228 kts 178°
2026-04-20 22:29 35.23183 -97.57906 7173 ft 237 kts 178°
2026-04-20 22:30 35.21442 -97.57749 7431 ft 262 kts 178°
2026-04-20 22:30 35.19587 -97.57581 8044 ft 272 kts 179°
2026-04-20 22:30 35.17684 -97.57408 8795 ft 276 kts 179°
2026-04-20 22:30 35.15745 -97.57234 9500 ft 284 kts 179°
2026-04-20 22:31 35.13755 -97.57057 10214 ft 290 kts 179°
2026-04-20 22:31 35.11674 -97.56873 10489 ft 313 kts 179°
2026-04-20 22:31 35.09425 -97.56675 10675 ft 336 kts 178°
2026-04-20 22:31 35.07019 -97.56461 10871 ft 357 kts 178°
2026-04-20 22:32 35.04504 -97.56235 11380 ft 366 kts 178°
2026-04-20 22:32 35.01953 -97.56008 12052 ft 369 kts 178°
2026-04-20 22:32 34.99415 -97.55750 12702 ft 374 kts 176°
2026-04-20 22:32 34.96774 -97.55373 13349 ft 379 kts 175°
2026-04-20 22:33 34.94180 -97.54918 13995 ft 385 kts 170°
2026-04-20 22:33 34.91560 -97.53949 14568 ft 392 kts 159°
2026-04-20 22:33 34.89079 -97.52640 15187 ft 395 kts 158°
2026-04-20 22:33 34.86553 -97.51273 15771 ft 399 kts 158°
2026-04-20 22:34 34.84002 -97.49889 16358 ft 403 kts 158°
2026-04-20 22:34 34.81423 -97.48499 16923 ft 408 kts 158°
2026-04-20 22:34 34.78816 -97.47103 17476 ft 412 kts 159°
2026-04-20 22:34 34.76175 -97.45699 18008 ft 416 kts 159°
2026-04-20 22:35 34.73507 -97.44286 18533 ft 421 kts 159°
2026-04-20 22:35 34.70805 -97.42859 19001 ft 425 kts 159°
2026-04-20 22:35 34.68090 -97.41427 19497 ft 427 kts 159°
2026-04-20 22:35 34.65346 -97.39982 19977 ft 431 kts 160°
2026-04-20 22:36 34.62588 -97.38530 20434 ft 435 kts 160°
2026-04-20 22:36 34.59799 -97.37063 20885 ft 438 kts 160°
2026-04-20 22:36 34.56989 -97.35586 21352 ft 442 kts 160°
2026-04-20 22:36 34.54160 -97.34099 21810 ft 445 kts 160°
2026-04-20 22:37 34.51317 -97.32607 22231 ft 448 kts 160°
2026-04-20 22:37 34.48436 -97.31095 22653 ft 452 kts 160°
2026-04-20 22:37 34.45577 -97.29596 23063 ft 455 kts 160°
2026-04-20 22:37 34.42664 -97.28070 23470 ft 458 kts 161°
2026-04-20 22:38 34.39723 -97.26530 23849 ft 462 kts 161°
2026-04-20 22:38 34.36761 -97.24981 24204 ft 465 kts 161°
2026-04-20 22:38 34.33790 -97.23427 24574 ft 466 kts 161°
2026-04-20 22:38 34.30806 -97.21867 24944 ft 468 kts 161°
2026-04-20 22:39 34.27808 -97.20302 25284 ft 470 kts 161°
2026-04-20 22:39 34.24794 -97.18730 25626 ft 473 kts 161°
2026-04-20 22:39 34.21757 -97.17213 25956 ft 472 kts 166°
2026-04-20 22:39 34.18608 -97.16160 26276 ft 467 kts 175°
2026-04-20 22:40 34.15403 -97.15504 26627 ft 467 kts 176°
2026-04-20 22:40 34.12185 -97.14895 26959 ft 469 kts 177°
2026-04-20 22:40 34.08958 -97.14290 27275 ft 471 kts 177°
2026-04-20 22:40 34.05717 -97.13673 27583 ft 473 kts 177°
2026-04-20 22:41 34.02460 -97.13039 27864 ft 475 kts 177°
2026-04-20 22:41 33.99197 -97.12392 28154 ft 477 kts 177°
2026-04-20 22:41 33.95917 -97.11733 28474 ft 478 kts 177°
2026-04-20 22:41 33.92634 -97.11069 28791 ft 479 kts 177°
2026-04-20 22:42 33.89349 -97.10403 29185 ft 478 kts 177°
2026-04-20 22:42 33.86074 -97.09739 29653 ft 476 kts 177°
2026-04-20 22:42 33.82822 -97.09080 30125 ft 473 kts 177°
2026-04-20 22:42 33.79575 -97.08423 30537 ft 471 kts 178°
2026-04-20 22:43 33.76345 -97.07773 30876 ft 470 kts 178°
2026-04-20 22:43 33.73119 -97.07125 31206 ft 470 kts 178°
2026-04-20 22:43 33.69902 -97.06479 31573 ft 468 kts 178°
2026-04-20 22:43 33.66706 -97.05837 31968 ft 465 kts 179°
2026-04-20 22:44 33.63513 -97.05197 32276 ft 464 kts 179°
2026-04-20 22:44 33.60325 -97.04559 32598 ft 463 kts 179°
2026-04-20 22:44 33.57147 -97.03923 32930 ft 462 kts 179°
2026-04-20 22:44 33.54055 -97.03304 33249 ft 461 kts 179°
2026-04-20 22:45 33.47724 -97.02044 33274 ft 466 kts 179°
2026-04-20 22:45 33.41357 -97.00771 33257 ft 461 kts 179°
2026-04-20 22:46 33.35056 -96.99511 33273 ft 459 kts 180°
2026-04-20 22:46 33.28762 -96.98261 33269 ft 458 kts 180°
2026-04-20 22:47 33.22478 -96.97014 33271 ft 458 kts 180°
2026-04-20 22:47 33.16193 -96.95767 33270 ft 458 kts 180°
2026-04-20 22:48 33.09903 -96.94521 33280 ft 458 kts 180°
2026-04-20 22:48 33.03608 -96.93276 33288 ft 459 kts 180°
2026-04-20 22:49 32.97306 -96.92030 33283 ft 459 kts 180°
2026-04-20 22:49 32.90996 -96.90785 33285 ft 460 kts 180°
2026-04-20 22:50 32.84704 -96.89978 33280 ft 451 kts 187°
2026-04-20 22:50 32.78449 -96.89686 33271 ft 449 kts 188°
2026-04-20 22:51 32.72198 -96.89415 33272 ft 450 kts 187°
2026-04-20 22:51 32.65944 -96.89093 33257 ft 450 kts 187°
2026-04-20 22:52 32.59699 -96.88744 33263 ft 449 kts 187°
2026-04-20 22:52 32.53503 -96.88392 33271 ft 448 kts 187°
2026-04-20 22:53 32.47273 -96.88040 33268 ft 448 kts 187°
2026-04-20 22:53 32.41058 -96.87690 33280 ft 447 kts 187°
2026-04-20 22:54 32.34850 -96.87342 33269 ft 446 kts 187°
2026-04-20 22:54 32.28652 -96.86995 33275 ft 446 kts 187°
2026-04-20 22:55 32.22453 -96.86649 33279 ft 446 kts 187°
2026-04-20 22:55 32.16262 -96.86304 33278 ft 445 kts 187°
2026-04-20 22:56 32.10069 -96.85958 33272 ft 446 kts 187°
2026-04-20 22:56 32.07797 -96.85832 33279 ft 445 kts 187°
2026-04-20 22:57 32.02692 -96.85547 33274 ft 445 kts 187°
2026-04-20 22:58 31.98568 -96.85318 33284 ft 445 kts 187°
2026-04-20 22:59 31.94903 -96.85114 33280 ft 445 kts 187°
2026-04-20 22:59 31.89762 -96.84829 33277 ft 445 kts 187°
2026-04-20 23:00 31.83579 -96.84486 33283 ft 445 kts 187°
2026-04-20 23:00 31.77396 -96.84143 33282 ft 444 kts 187°
2026-04-20 23:01 31.71281 -96.83796 33290 ft 445 kts 185°
2026-04-20 23:01 31.68181 -96.83203 33297 ft 457 kts 176°
2026-04-20 23:01 31.65093 -96.82260 33288 ft 460 kts 174°
2026-04-20 23:02 31.58933 -96.80196 33288 ft 460 kts 173°
2026-04-20 23:02 31.52762 -96.78189 33284 ft 460 kts 174°
2026-04-20 23:03 31.46589 -96.76264 33280 ft 459 kts 174°
2026-04-20 23:03 31.40411 -96.74361 33287 ft 459 kts 175°
2026-04-20 23:04 31.37311 -96.73408 32976 ft 463 kts 174°
2026-04-20 23:04 31.34186 -96.72448 32378 ft 464 kts 174°
2026-04-20 23:04 31.31071 -96.71486 31845 ft 461 kts 174°
2026-04-20 23:04 31.27985 -96.70531 31386 ft 456 kts 174°
2026-04-20 23:05 31.24928 -96.69587 30916 ft 453 kts 174°
2026-04-20 23:05 31.21891 -96.68653 30452 ft 450 kts 174°
2026-04-20 23:05 31.21124 -96.68417 30329 ft 449 kts 174°
2026-04-20 23:05 31.20585 -96.68252 30227 ft 449 kts 174°
2026-04-20 23:06 31.17548 -96.67225 29742 ft 461 kts 169°
2026-04-20 23:06 31.14491 -96.65938 29236 ft 472 kts 167°
2026-04-20 23:06 31.11404 -96.64521 28712 ft 482 kts 166°
2026-04-20 23:06 31.08261 -96.63058 28179 ft 489 kts 165°
2026-04-20 23:07 31.05073 -96.61596 27634 ft 496 kts 166°
2026-04-20 23:07 31.01832 -96.60142 27094 ft 502 kts 166°
2026-04-20 23:07 30.98542 -96.58691 26558 ft 507 kts 166°
2026-04-20 23:07 30.95256 -96.57249 26485 ft 502 kts 166°
2026-04-20 23:08 30.92003 -96.55823 26454 ft 497 kts 166°
2026-04-20 23:08 30.88783 -96.54413 26411 ft 493 kts 166°
2026-04-20 23:08 30.85588 -96.53017 26382 ft 489 kts 166°
2026-04-20 23:08 30.82415 -96.51632 26361 ft 485 kts 166°
2026-04-20 23:09 30.79310 -96.50276 26339 ft 482 kts 166°
2026-04-20 23:09 30.76140 -96.48893 26336 ft 478 kts 166°
2026-04-20 23:09 30.73034 -96.47539 26328 ft 476 kts 166°
2026-04-20 23:09 30.69995 -96.46214 26287 ft 467 kts 166°
2026-04-20 23:10 30.67021 -96.44910 26159 ft 445 kts 166°
2026-04-20 23:10 30.64196 -96.43669 25989 ft 420 kts 166°
2026-04-20 23:10 30.61559 -96.42509 25434 ft 396 kts 167°
2026-04-20 23:10 30.58998 -96.41341 24211 ft 398 kts 163°
2026-04-20 23:11 30.56472 -96.39997 22827 ft 400 kts 160°
2026-04-20 23:11 30.55147 -96.39251 22119 ft 400 kts 159°
2026-04-20 23:12 30.53738 -96.38449 21422 ft 397 kts 159°
2026-04-20 23:12 30.51276 -96.37051 20405 ft 389 kts 158°
2026-04-20 23:12 30.48903 -96.35719 19903 ft 368 kts 159°
2026-04-20 23:12 30.46645 -96.34472 19356 ft 352 kts 159°
2026-04-20 23:13 30.44474 -96.33284 18847 ft 340 kts 159°
2026-04-20 23:13 30.42334 -96.32119 18353 ft 341 kts 159°
2026-04-20 23:13 30.40171 -96.30962 17706 ft 345 kts 159°
2026-04-20 23:13 30.37944 -96.29792 17076 ft 369 kts 159°
2026-04-20 23:14 30.35537 -96.28531 16445 ft 376 kts 159°
2026-04-20 23:14 30.33197 -96.27297 15890 ft 373 kts 158°
2026-04-20 23:14 30.30816 -96.26039 15329 ft 369 kts 158°
2026-04-20 23:14 30.28520 -96.24826 14809 ft 368 kts 158°
2026-04-20 23:15 30.26173 -96.23588 14257 ft 372 kts 158°
2026-04-20 23:15 30.23815 -96.22346 13668 ft 374 kts 158°
2026-04-20 23:15 30.21456 -96.21102 13102 ft 374 kts 157°
2026-04-20 23:15 30.19094 -96.19843 12555 ft 369 kts 157°
2026-04-20 23:16 30.16786 -96.18612 12023 ft 361 kts 157°
2026-04-20 23:16 30.14550 -96.17418 11808 ft 344 kts 157°
2026-04-20 23:16 30.12424 -96.16278 11731 ft 332 kts 157°
2026-04-20 23:16 30.10337 -96.15161 11604 ft 332 kts 157°
2026-04-20 23:17 30.08214 -96.14028 11644 ft 340 kts 157°
2026-04-20 23:17 30.06050 -96.12872 11579 ft 343 kts 156°
2026-04-20 23:17 30.03907 -96.11681 11518 ft 340 kts 155°
2026-04-20 23:17 30.01809 -96.10474 11441 ft 335 kts 155°
2026-04-20 23:18 29.99721 -96.09265 11434 ft 338 kts 155°
2026-04-20 23:18 29.97609 -96.08045 11394 ft 341 kts 155°
2026-04-20 23:18 29.95486 -96.06822 11344 ft 341 kts 155°
2026-04-20 23:18 29.93368 -96.05606 11290 ft 340 kts 155°
2026-04-20 23:19 29.91256 -96.04394 11227 ft 339 kts 155°
2026-04-20 23:19 29.89146 -96.03185 11188 ft 338 kts 155°
2026-04-20 23:19 29.87042 -96.01982 11136 ft 338 kts 155°
2026-04-20 23:19 29.84939 -96.00780 11082 ft 338 kts 155°
2026-04-20 23:20 29.82837 -95.99578 11017 ft 337 kts 155°
2026-04-20 23:20 29.80794 -95.98305 10813 ft 337 kts 152°
2026-04-20 23:20 29.78769 -95.96947 10598 ft 328 kts 151°
2026-04-20 23:20 29.76862 -95.95665 10392 ft 315 kts 152°
2026-04-20 23:21 29.75000 -95.94427 10201 ft 304 kts 152°
2026-04-20 23:21 29.73202 -95.93239 10020 ft 293 kts 152°
2026-04-20 23:21 29.71409 -95.92071 9800 ft 293 kts 153°
2026-04-20 23:21 29.71289 -95.91993 9789 ft 293 kts 152°
2026-04-20 23:22 29.70791 -95.91671 9721 ft 294 kts 152°
2026-04-20 23:22 29.68999 -95.90515 9478 ft 296 kts 153°
2026-04-20 23:23 29.67197 -95.89352 9256 ft 296 kts 152°
2026-04-20 23:23 29.65424 -95.88171 9007 ft 293 kts 147°
2026-04-20 23:23 29.63969 -95.86546 8769 ft 290 kts 132°
2026-04-20 23:23 29.62684 -95.84781 8541 ft 286 kts 131°
2026-04-20 23:24 29.61424 -95.83034 8320 ft 282 kts 131°
2026-04-20 23:24 29.60173 -95.81310 8107 ft 279 kts 131°
2026-04-20 23:24 29.58930 -95.79610 7892 ft 276 kts 131°
2026-04-20 23:24 29.57697 -95.77932 7689 ft 273 kts 131°
2026-04-20 23:25 29.56472 -95.76274 7465 ft 271 kts 131°
2026-04-20 23:25 29.55257 -95.74630 7257 ft 269 kts 131°
2026-04-20 23:25 29.54054 -95.73006 7038 ft 265 kts 131°
2026-04-20 23:25 29.52868 -95.71406 6841 ft 261 kts 131°
2026-04-20 23:26 29.51696 -95.69827 6638 ft 258 kts 130°
2026-04-20 23:26 29.50610 -95.68220 6359 ft 257 kts 116°
2026-04-20 23:26 29.50134 -95.66238 6044 ft 258 kts 101°
2026-04-20 23:26 29.49809 -95.64216 5777 ft 256 kts 101°
2026-04-20 23:27 29.49472 -95.62227 5568 ft 253 kts 102°
2026-04-20 23:27 29.49123 -95.60252 5377 ft 252 kts 102°
2026-04-20 23:27 29.48762 -95.58277 5161 ft 253 kts 103°
2026-04-20 23:27 29.48391 -95.56291 4940 ft 254 kts 103°
2026-04-20 23:28 29.48015 -95.54307 4718 ft 255 kts 102°
2026-04-20 23:28 29.47637 -95.52326 4492 ft 251 kts 102°
2026-04-20 23:28 29.47267 -95.50391 4294 ft 244 kts 103°
2026-04-20 23:28 29.47058 -95.48982 4143 ft 235 kts 91°
2026-04-20 23:29 29.47396 -95.47199 3912 ft 227 kts 68°
2026-04-20 23:29 29.48276 -95.45734 3667 ft 222 kts 49°
2026-04-20 23:29 29.49378 -95.44575 3440 ft 213 kts 46°
2026-04-20 23:29 29.50468 -95.43439 3230 ft 212 kts 46°
2026-04-20 23:30 29.51553 -95.42256 3043 ft 214 kts 47°
2026-04-20 23:30 29.52621 -95.41073 2780 ft 218 kts 47°
2026-04-20 23:30 29.53710 -95.39862 2541 ft 218 kts 46°
2026-04-20 23:30 29.54785 -95.38668 2263 ft 208 kts 46°
2026-04-20 23:31 29.55786 -95.37557 2079 ft 194 kts 47°
2026-04-20 23:31 29.56724 -95.36515 1857 ft 181 kts 46°
2026-04-20 23:31 29.57596 -95.35547 1672 ft 167 kts 47°
2026-04-20 23:31 29.58385 -95.34671 1567 ft 148 kts 47°
2026-04-20 23:32 29.59100 -95.33877 1419 ft 139 kts 48°
2026-04-20 23:32 29.59805 -95.33091 1213 ft 143 kts 48°
2026-04-20 23:32 29.60506 -95.32306 1052 ft 140 kts 47°
2026-04-20 23:32 29.61218 -95.31511 829 ft 142 kts 47°
2026-04-20 23:33 29.61929 -95.30727 590 ft 142 kts 48°
2026-04-20 23:33 29.62638 -95.29939 423 ft 141 kts 46°
2026-04-20 23:33 29.63348 -95.29156 238 ft 144 kts 47°
2026-04-20 23:33 29.64075 -95.28352 53 ft 143 kts 47°
2026-04-20 23:34 29.64681 -95.27682 51 ft 91 kts 43°
2026-04-20 23:34 29.64974 -95.27358 48 ft 32 kts 43°
2026-04-20 23:34 29.65146 -95.27208 51 ft 20 kts 22°
2026-04-20 23:34 29.65228 -95.27207 51 ft 9 kts 313°
2026-04-20 23:35 29.65246 -95.27278 48 ft 9 kts 291°
2026-04-20 23:35 29.65325 -95.27386 51 ft 8 kts 297°
2026-04-20 23:35 29.65335 -95.27407 51 ft 4 kts 297°
2026-04-20 23:36 29.65353 -95.27453 51 ft 6 kts 289°
2026-04-20 23:36 29.65338 -95.27490 49 ft 6 kts 211°
2026-04-20 23:36 29.65317 -95.27503 51 ft 1 kts 211°
2026-04-20 23:36 29.65313 -95.27507 51 ft 1 kts 211°
2026-04-20 23:37 29.65311 -95.27508 51 ft 0 kts 211°